Find Starlink 11702

NORAD ID: 63752 Int'l Des: 2025-089 Owner: SPXS Country: US Constellation: starlink operational
LEOCIRCULAR

Live-Position

3D-Globus wird geladen...

Über Starlink 11702

Beschreibung wird geladen...

Nächste Überflüge

Passes for default location (London). Set your location on the main map for personalized predictions.

Höhenverlauf

Loading altitude history...

Zweizeiliger Elementsatz

1 63752U 25089B 26126.85243786 .00156619 00000-0 11996-2 0 9993
2 63752 43.0000 301.6024 0001367 299.6719 60.4012 15.70871044 59282
Epoch: 6. Mai 2026 • Age: 23 hours

Aktueller Status

Höhe 366.1 km
Geschwindigkeit 7.69 km/s
Subsatellitenpunkt -38.46°S, 86.38°E
Startdatum 29. Apr. 2025
Alter 1 years
Typ internet

Technische Details

Klassifizierung Payload
Masse 960.00 kg
Trockenmasse 910.00 kg
Gesamtmasse 960.00 kg
Länge 0.30 m
Durchmesser 4.10 m
Spannweite 29.00 m
Form Box + pan
Hersteller SPXS
Bus-Typ Starlink V2MD
Phasenstatus In Orbit
Besitzer/Staat SPXS/US

Most Searched